Time,TemperatureF,DewpointF,PressureIn,WindDirection,WindDirectionDegrees,WindSpeedMPH,WindSpeedGustMPH,Humidity,HourlyPrecipIn,Conditions,Clouds,dailyrainin,SolarRadiationWatts/m^2,SoftwareType,DateUTC
2016-02-08 00:01:00,33.4,30.0,29.60,SW,236,0.9,6.0,87,0.00,,,0.00,0.0,meteobridge,2016-02-08 06:01:00,
2016-02-08 00:06:00,33.3,29.8,29.60,SW,223,0.9,10.0,87,0.00,,,0.00,0.0,meteobridge,2016-02-08 06:06:00,
2016-02-08 00:11:00,33.4,30.0,29.60,SSW,213,4.9,9.0,87,0.00,,,0.00,0.0,meteobridge,2016-02-08 06:11:00,
2016-02-08 00:16:00,33.4,30.0,29.60,SSW,198,4.9,6.0,87,0.00,,,0.00,0.0,meteobridge,2016-02-08 06:16:00,
2016-02-08 00:21:00,33.4,30.2,29.60,SSW,213,4.9,6.0,88,0.00,,,0.00,0.0,meteobridge,2016-02-08 06:21:00,
2016-02-08 00:26:00,33.4,30.2,29.60,SW,229,2.9,6.0,88,0.00,,,0.00,0.0,meteobridge,2016-02-08 06:26:00,
2016-02-08 00:31:00,33.4,30.2,29.59,SSW,207,6.0,7.0,88,0.00,,,0.00,0.0,meteobridge,2016-02-08 06:31:00,
2016-02-08 00:36:00,33.4,30.2,29.59,SW,232,2.9,5.0,88,0.00,,,0.00,0.0,meteobridge,2016-02-08 06:36:00,
2016-02-08 00:42:00,33.3,30.0,29.59,SW,218,4.9,7.0,88,0.00,,,0.00,0.0,meteobridge,2016-02-08 06:42:00,
2016-02-08 00:47:00,33.3,30.0,29.59,SSW,213,4.9,6.0,88,0.00,,,0.00,0.0,meteobridge,2016-02-08 06:47:00,
2016-02-08 00:52:00,33.4,30.2,29.59,WSW,250,4.0,7.0,88,0.00,,,0.00,0.0,meteobridge,2016-02-08 06:52:00,
2016-02-08 00:57:00,33.4,30.6,29.59,SW,236,2.9,6.0,89,0.00,,,0.00,0.0,meteobridge,2016-02-08 06:57:00,
2016-02-08 01:02:00,33.4,30.6,29.59,SW,219,2.0,5.0,89,0.00,,,0.00,0.0,meteobridge,2016-02-08 07:02:00,
2016-02-08 01:07:00,33.4,30.6,29.59,West,260,8.1,8.1,89,0.00,,,0.00,0.0,meteobridge,2016-02-08 07:07:00,
2016-02-08 01:17:00,33.3,30.6,29.59,SW,232,9.0,9.0,90,0.00,,,0.00,0.0,meteobridge,2016-02-08 07:17:00,
2016-02-08 01:22:00,33.1,30.7,29.59,WSW,246,2.9,9.0,91,0.00,,,0.00,0.0,meteobridge,2016-02-08 07:22:00,
2016-02-08 01:27:00,33.1,30.7,29.59,SSW,205,2.9,7.0,91,0.00,,,0.00,0.0,meteobridge,2016-02-08 07:27:00,
2016-02-08 01:32:00,32.9,30.9,29.58,SW,233,4.9,5.0,92,0.00,,,0.00,0.0,meteobridge,2016-02-08 07:32:00,
2016-02-08 01:37:00,32.7,30.7,29.58,SSW,209,2.0,5.0,92,0.00,,,0.00,0.0,meteobridge,2016-02-08 07:37:00,
2016-02-08 01:43:00,32.7,30.9,29.58,SSW,202,4.9,6.0,93,0.00,,,0.00,0.0,meteobridge,2016-02-08 07:43:00,
2016-02-08 01:48:00,32.7,30.9,29.58,SW,227,2.0,5.0,93,0.00,,,0.00,0.0,meteobridge,2016-02-08 07:48:00,
2016-02-08 01:53:00,32.7,30.9,29.58,SW,218,2.9,6.0,93,0.00,,,0.00,0.0,meteobridge,2016-02-08 07:53:00,
2016-02-08 01:58:00,32.7,31.1,29.58,WSW,240,0.0,4.0,94,0.00,,,0.01,0.0,meteobridge,2016-02-08 07:58:00,
2016-02-08 02:08:00,32.7,31.1,29.58,SW,227,0.9,5.0,94,0.01,,,0.01,0.0,meteobridge,2016-02-08 08:08:00,
2016-02-08 02:13:00,32.7,31.1,29.58,WSW,239,8.1,10.0,94,0.01,,,0.01,0.0,meteobridge,2016-02-08 08:13:00,
2016-02-08 02:18:00,32.7,31.1,29.58,West,264,14.1,14.1,94,0.01,,,0.01,0.0,meteobridge,2016-02-08 08:18:00,
2016-02-08 02:23:00,32.5,30.9,29.58,West,273,15.0,17.0,94,0.01,,,0.01,0.0,meteobridge,2016-02-08 08:23:00,
2016-02-08 02:28:00,31.8,30.0,29.59,NW,325,15.0,15.0,93,0.01,,,0.01,0.0,meteobridge,2016-02-08 08:28:00,
2016-02-08 02:38:00,30.7,28.9,29.59,NW,324,11.0,14.0,93,0.01,,,0.01,0.0,meteobridge,2016-02-08 08:38:00,
2016-02-08 02:44:00,30.6,28.8,29.59,NNW,327,8.9,16.0,93,0.01,,,0.01,0.0,meteobridge,2016-02-08 08:44:00,
2016-02-08 02:49:00,30.6,28.8,29.59,NNW,336,4.9,10.0,93,0.01,,,0.01,0.0,meteobridge,2016-02-08 08:49:00,
2016-02-08 02:54:00,30.4,28.6,29.59,North,355,6.0,10.0,93,0.01,,,0.01,0.0,meteobridge,2016-02-08 08:54:00,
2016-02-08 02:59:00,30.4,28.6,29.59,NNW,338,6.0,9.0,93,0.00,,,0.01,0.0,meteobridge,2016-02-08 08:59:00,
2016-02-08 03:09:00,30.4,28.6,29.58,NNW,335,6.0,9.0,93,0.00,,,0.01,0.0,meteobridge,2016-02-08 09:09:00,
2016-02-08 03:14:00,30.4,28.6,29.59,NW,324,8.9,10.0,93,0.00,,,0.01,0.0,meteobridge,2016-02-08 09:14:00,
2016-02-08 03:19:00,30.0,28.0,29.59,NNW,332,8.9,11.0,92,0.00,,,0.01,0.0,meteobridge,2016-02-08 09:19:00,
2016-02-08 03:25:00,29.8,27.9,29.58,NNW,332,8.1,13.0,92,0.00,,,0.01,0.0,meteobridge,2016-02-08 09:25:00,
2016-02-08 03:30:00,29.8,27.5,29.59,NW,319,8.9,14.0,91,0.00,,,0.01,0.0,meteobridge,2016-02-08 09:30:00,
2016-02-08 03:35:00,29.8,27.5,29.59,NNW,331,8.1,10.0,91,0.00,,,0.01,0.0,meteobridge,2016-02-08 09:35:00,
2016-02-08 03:40:00,29.8,27.3,29.59,NNW,336,8.1,11.0,90,0.00,,,0.01,0.0,meteobridge,2016-02-08 09:40:00,
2016-02-08 03:45:00,29.8,27.3,29.59,NNW,329,8.1,11.0,90,0.00,,,0.01,0.0,meteobridge,2016-02-08 09:45:00,
2016-02-08 03:50:00,29.8,27.3,29.59,NNW,335,4.9,9.0,90,0.00,,,0.01,0.0,meteobridge,2016-02-08 09:50:00,
2016-02-08 03:55:00,29.7,27.1,29.59,NW,320,11.0,13.0,90,0.00,,,0.01,0.0,meteobridge,2016-02-08 09:55:00,
2016-02-08 04:00:00,29.7,27.1,29.59,NW,315,12.1,13.0,90,0.00,,,0.01,0.0,meteobridge,2016-02-08 10:00:00,
2016-02-08 04:05:00,29.7,26.8,29.59,NNW,328,8.9,14.0,89,0.00,,,0.01,0.0,meteobridge,2016-02-08 10:05:00,
2016-02-08 04:10:00,29.5,26.6,29.59,NW,314,8.9,14.0,89,0.00,,,0.01,0.0,meteobridge,2016-02-08 10:10:00,
2016-02-08 04:15:00,29.5,26.4,29.59,NW,310,10.1,12.0,88,0.00,,,0.01,0.0,meteobridge,2016-02-08 10:15:00,
2016-02-08 04:20:00,29.1,26.1,29.59,WNW,302,10.1,11.0,88,0.00,,,0.01,0.0,meteobridge,2016-02-08 10:20:00,
2016-02-08 04:25:00,29.1,25.7,29.59,NW,313,13.0,15.0,87,0.00,,,0.01,0.0,meteobridge,2016-02-08 10:25:00,
2016-02-08 04:31:00,28.9,25.5,29.59,NW,313,10.1,12.0,87,0.00,,,0.01,0.0,meteobridge,2016-02-08 10:31:00,
2016-02-08 04:36:00,28.9,25.5,29.59,NW,321,8.1,15.0,87,0.00,,,0.01,0.0,meteobridge,2016-02-08 10:36:00,
2016-02-08 04:41:00,28.9,25.5,29.59,NW,321,8.9,11.0,87,0.00,,,0.01,0.0,meteobridge,2016-02-08 10:41:00,
2016-02-08 04:46:00,28.9,25.5,29.59,NW,315,8.1,9.0,87,0.00,,,0.01,0.0,meteobridge,2016-02-08 10:46:00,
2016-02-08 04:51:00,28.9,25.5,29.60,NW,321,4.9,10.0,87,0.00,,,0.01,0.0,meteobridge,2016-02-08 10:51:00,
2016-02-08 04:56:00,28.8,25.3,29.59,NW,323,6.0,8.0,87,0.00,,,0.01,0.0,meteobridge,2016-02-08 10:56:00,
2016-02-08 05:01:00,28.8,25.3,29.60,NW,318,4.9,10.0,87,0.00,,,0.01,0.0,meteobridge,2016-02-08 11:01:00,
2016-02-08 05:06:00,28.8,25.3,29.60,NW,319,11.0,12.0,87,0.00,,,0.01,0.0,meteobridge,2016-02-08 11:06:00,
2016-02-08 05:11:00,28.6,25.2,29.60,NNW,329,8.1,10.0,87,0.00,,,0.01,0.0,meteobridge,2016-02-08 11:11:00,
2016-02-08 05:16:00,28.4,25.0,29.60,NW,316,11.0,12.0,87,0.00,,,0.01,0.0,meteobridge,2016-02-08 11:16:00,
2016-02-08 05:21:00,28.2,24.8,29.60,NNW,327,8.9,11.0,87,0.00,,,0.01,0.0,meteobridge,2016-02-08 11:21:00,
2016-02-08 05:26:00,28.0,24.4,29.61,NW,306,8.9,15.0,86,0.00,,,0.01,0.0,meteobridge,2016-02-08 11:26:00,
2016-02-08 05:31:00,27.9,24.3,29.61,WNW,299,13.0,15.0,86,0.00,,,0.01,0.0,meteobridge,2016-02-08 11:31:00,
2016-02-08 05:36:00,27.9,24.4,29.61,NW,323,8.1,13.0,87,0.00,,,0.01,0.0,meteobridge,2016-02-08 11:36:00,
2016-02-08 05:41:00,27.7,24.3,29.61,NNW,332,8.1,16.0,87,0.00,,,0.01,0.0,meteobridge,2016-02-08 11:41:00,
2016-02-08 05:47:00,27.5,24.1,29.61,WNW,298,12.1,15.0,87,0.00,,,0.01,0.0,meteobridge,2016-02-08 11:47:00,
2016-02-08 05:52:00,27.3,23.9,29.61,NW,317,8.9,12.0,87,0.00,,,0.01,0.0,meteobridge,2016-02-08 11:52:00,
2016-02-08 05:57:00,27.0,23.9,29.62,NNW,327,8.9,14.0,88,0.00,,,0.01,0.0,meteobridge,2016-02-08 11:57:00,
2016-02-08 06:02:00,27.0,23.9,29.62,NW,318,8.9,14.0,88,0.00,,,0.01,0.0,meteobridge,2016-02-08 12:02:00,
2016-02-08 06:07:00,26.6,23.5,29.62,NW,320,14.1,15.0,88,0.00,,,0.01,0.0,meteobridge,2016-02-08 12:07:00,
2016-02-08 06:12:00,26.4,23.4,29.62,NW,306,11.0,13.0,88,0.00,,,0.01,0.0,meteobridge,2016-02-08 12:12:00,
2016-02-08 06:17:00,26.1,23.0,29.63,NW,314,13.0,16.0,88,0.00,,,0.01,0.0,meteobridge,2016-02-08 12:17:00,
2016-02-08 06:22:00,26.1,23.0,29.63,NW,313,11.0,14.0,88,0.00,,,0.01,0.0,meteobridge,2016-02-08 12:22:00,
2016-02-08 06:27:00,25.9,22.8,29.63,NW,321,12.1,14.0,88,0.00,,,0.01,0.0,meteobridge,2016-02-08 12:27:00,
2016-02-08 06:32:00,25.9,22.8,29.63,NW,321,8.1,13.0,88,0.00,,,0.01,0.0,meteobridge,2016-02-08 12:32:00,
2016-02-08 06:42:00,25.3,22.3,29.63,NW,323,12.1,15.0,88,0.00,,,0.01,0.0,meteobridge,2016-02-08 12:42:00,
2016-02-08 06:47:00,25.0,21.7,29.63,NW,316,11.0,16.0,87,0.00,,,0.01,0.0,meteobridge,2016-02-08 12:47:00,
2016-02-08 06:52:00,24.4,21.2,29.64,NW,306,12.1,17.0,87,0.00,,,0.01,0.0,meteobridge,2016-02-08 12:52:00,
2016-02-08 06:57:00,24.3,21.0,29.64,NW,309,13.0,16.0,87,0.00,,,0.01,0.0,meteobridge,2016-02-08 12:57:00,
2016-02-08 07:03:00,24.1,20.8,29.65,NW,308,16.1,16.1,87,0.00,,,0.01,0.0,meteobridge,2016-02-08 13:03:00,
2016-02-08 07:08:00,23.7,20.5,29.65,WNW,301,13.0,17.0,87,0.00,,,0.01,0.0,meteobridge,2016-02-08 13:08:00,
2016-02-08 07:13:00,23.7,20.5,29.65,WNW,292,13.0,16.0,87,0.00,,,0.01,0.0,meteobridge,2016-02-08 13:13:00,
2016-02-08 07:18:00,23.5,20.3,29.65,NNW,327,10.1,17.0,87,0.00,,,0.01,0.0,meteobridge,2016-02-08 13:18:00,
2016-02-08 07:23:00,23.5,20.3,29.65,NW,312,12.1,14.0,87,0.00,,,0.01,5.0,meteobridge,2016-02-08 13:23:00,
2016-02-08 07:28:00,23.4,20.1,29.65,NW,312,17.0,17.0,87,0.00,,,0.01,5.0,meteobridge,2016-02-08 13:28:00,
2016-02-08 07:33:00,23.4,20.1,29.65,NW,317,12.1,18.0,87,0.00,,,0.01,7.0,meteobridge,2016-02-08 13:33:00,
2016-02-08 07:38:00,23.4,20.1,29.65,NNW,327,8.9,13.0,87,0.00,,,0.01,11.0,meteobridge,2016-02-08 13:38:00,
2016-02-08 07:43:00,23.4,20.1,29.65,NW,309,8.9,16.0,87,0.00,,,0.01,12.0,meteobridge,2016-02-08 13:43:00,
2016-02-08 07:53:00,23.4,20.1,29.66,NW,321,13.0,14.0,87,0.00,,,0.01,14.0,meteobridge,2016-02-08 13:53:00,
2016-02-08 07:58:00,23.2,19.9,29.66,NW,313,10.1,13.0,87,0.00,,,0.01,16.0,meteobridge,2016-02-08 13:58:00,
2016-02-08 08:03:00,23.2,19.9,29.66,NW,309,12.1,16.0,87,0.00,,,0.01,21.0,meteobridge,2016-02-08 14:03:00,
2016-02-08 08:08:00,22.8,19.6,29.66,NNW,327,11.0,15.0,87,0.00,,,0.01,25.0,meteobridge,2016-02-08 14:08:00,
2016-02-08 08:13:00,22.6,19.4,29.66,WNW,298,12.1,14.0,87,0.00,,,0.01,30.0,meteobridge,2016-02-08 14:13:00,
2016-02-08 08:19:00,22.5,19.2,29.66,WNW,298,11.0,15.0,87,0.00,,,0.01,35.0,meteobridge,2016-02-08 14:19:00,
2016-02-08 08:24:00,22.5,19.2,29.66,NW,306,13.0,18.0,87,0.00,,,0.01,39.0,meteobridge,2016-02-08 14:24:00,
2016-02-08 08:29:00,22.3,18.7,29.66,NW,317,15.0,18.0,86,0.00,,,0.01,47.0,meteobridge,2016-02-08 14:29:00,
2016-02-08 08:34:00,21.9,18.3,29.67,NNW,342,15.0,19.0,86,0.00,,,0.01,60.0,meteobridge,2016-02-08 14:34:00,
2016-02-08 08:39:00,21.9,18.3,29.67,NW,319,14.1,17.0,86,0.00,,,0.01,70.0,meteobridge,2016-02-08 14:39:00,
2016-02-08 08:44:00,21.9,18.3,29.67,NW,324,8.9,14.0,86,0.00,,,0.01,79.0,meteobridge,2016-02-08 14:44:00,
2016-02-08 08:49:00,21.9,18.3,29.67,NNW,334,12.1,13.0,86,0.00,,,0.01,91.0,meteobridge,2016-02-08 14:49:00,
2016-02-08 08:54:00,22.1,18.5,29.67,NW,316,14.1,17.0,86,0.00,,,0.01,104.0,meteobridge,2016-02-08 14:54:00,
2016-02-08 08:59:00,21.9,18.1,29.67,NNW,332,12.1,15.0,85,0.00,,,0.01,109.0,meteobridge,2016-02-08 14:59:00,
2016-02-08 09:04:00,22.1,18.3,29.67,NW,317,12.1,14.0,85,0.00,,,0.01,121.0,meteobridge,2016-02-08 15:04:00,
2016-02-08 09:09:00,22.3,18.7,29.67,NNW,338,11.0,15.0,86,0.00,,,0.01,134.0,meteobridge,2016-02-08 15:09:00,
2016-02-08 09:14:00,22.5,18.9,29.68,NW,311,8.9,12.0,86,0.00,,,0.01,132.0,meteobridge,2016-02-08 15:14:00,
2016-02-08 09:20:00,22.5,18.9,29.67,NW,306,11.0,12.0,86,0.00,,,0.01,137.0,meteobridge,2016-02-08 15:20:00,
2016-02-08 09:25:00,22.6,19.0,29.68,NW,319,17.0,19.0,86,0.00,,,0.01,148.0,meteobridge,2016-02-08 15:25:00,
2016-02-08 09:30:00,22.5,18.3,29.68,NW,315,8.9,14.0,84,0.00,,,0.01,156.0,meteobridge,2016-02-08 15:30:00,
2016-02-08 09:35:00,22.5,18.7,29.68,NW,308,8.9,13.0,85,0.00,,,0.01,174.0,meteobridge,2016-02-08 15:35:00,
2016-02-08 09:40:00,22.6,18.9,29.68,NW,319,10.1,17.0,85,0.00,,,0.01,193.0,meteobridge,2016-02-08 15:40:00,
2016-02-08 09:45:00,22.5,18.3,29.68,NW,313,10.1,15.0,84,0.00,,,0.01,200.0,meteobridge,2016-02-08 15:45:00,
2016-02-08 09:51:00,22.5,18.3,29.69,NW,318,12.1,15.0,84,0.00,,,0.01,202.0,meteobridge,2016-02-08 15:51:00,
2016-02-08 09:56:00,22.5,18.3,29.69,NW,318,16.1,16.1,84,0.00,,,0.01,204.0,meteobridge,2016-02-08 15:56:00,
2016-02-08 10:01:00,22.6,18.5,29.69,WNW,302,12.1,16.0,84,0.00,,,0.01,202.0,meteobridge,2016-02-08 16:01:00,
2016-02-08 10:06:00,22.5,18.3,29.70,NW,324,15.0,19.0,84,0.00,,,0.01,202.0,meteobridge,2016-02-08 16:06:00,
2016-02-08 10:11:00,22.5,18.3,29.70,NW,312,11.0,16.0,84,0.00,,,0.01,221.0,meteobridge,2016-02-08 16:11:00,
2016-02-08 10:16:00,22.5,18.1,29.70,WNW,302,14.1,17.0,83,0.00,,,0.01,234.0,meteobridge,2016-02-08 16:16:00,
2016-02-08 10:21:00,22.5,18.3,29.70,NW,317,12.1,16.0,84,0.00,,,0.01,230.0,meteobridge,2016-02-08 16:21:00,
2016-02-08 10:26:00,22.6,18.5,29.70,NW,318,17.0,17.0,84,0.00,,,0.01,236.0,meteobridge,2016-02-08 16:26:00,
2016-02-08 10:31:00,22.6,18.3,29.70,NW,306,14.1,16.0,83,0.00,,,0.01,241.0,meteobridge,2016-02-08 16:31:00,
2016-02-08 10:36:00,22.8,18.7,29.70,NW,311,14.1,15.0,84,0.00,,,0.01,230.0,meteobridge,2016-02-08 16:36:00,
2016-02-08 10:41:00,23.0,18.9,29.70,NW,315,11.0,12.0,84,0.00,,,0.01,229.0,meteobridge,2016-02-08 16:41:00,
2016-02-08 10:46:00,23.0,18.7,29.70,NNW,336,16.1,18.0,83,0.00,,,0.01,243.0,meteobridge,2016-02-08 16:46:00,
2016-02-08 10:51:00,23.0,18.7,29.70,NNW,338,12.1,16.0,83,0.00,,,0.01,255.0,meteobridge,2016-02-08 16:51:00,
2016-02-08 10:56:00,23.2,19.0,29.70,NNW,342,16.1,16.1,84,0.00,,,0.01,250.0,meteobridge,2016-02-08 16:56:00,
2016-02-08 11:01:00,23.4,19.0,29.70,NNW,328,8.9,14.0,83,0.00,,,0.01,250.0,meteobridge,2016-02-08 17:01:00,
2016-02-08 11:06:00,23.5,19.4,29.70,NW,317,10.1,16.0,84,0.00,,,0.01,260.0,meteobridge,2016-02-08 17:06:00,
2016-02-08 11:12:00,23.5,19.2,29.70,WNW,296,13.0,14.0,83,0.00,,,0.01,279.0,meteobridge,2016-02-08 17:12:00,
2016-02-08 11:17:00,23.5,19.4,29.70,NW,316,12.1,17.0,84,0.00,,,0.01,299.0,meteobridge,2016-02-08 17:17:00,
2016-02-08 11:22:00,23.9,19.8,29.70,NNW,335,14.1,16.0,84,0.00,,,0.01,302.0,meteobridge,2016-02-08 17:22:00,
2016-02-08 11:27:00,24.1,19.8,29.70,NW,324,10.1,13.0,83,0.00,,,0.01,297.0,meteobridge,2016-02-08 17:27:00,
2016-02-08 11:32:00,24.1,19.8,29.70,NW,321,13.0,14.0,83,0.00,,,0.01,306.0,meteobridge,2016-02-08 17:32:00,
2016-02-08 11:37:00,24.3,19.8,29.70,NNW,338,11.0,16.0,83,0.00,,,0.01,309.0,meteobridge,2016-02-08 17:37:00,
2016-02-08 11:42:00,24.3,19.8,29.70,NW,314,12.1,15.0,83,0.00,,,0.01,294.0,meteobridge,2016-02-08 17:42:00,
2016-02-08 11:47:00,24.3,19.8,29.70,NW,321,8.9,15.0,83,0.00,,,0.01,288.0,meteobridge,2016-02-08 17:47:00,
2016-02-08 11:52:00,24.3,20.1,29.70,NW,321,8.9,12.0,84,0.00,,,0.01,267.0,meteobridge,2016-02-08 17:52:00,
2016-02-08 11:57:00,24.3,19.8,29.70,NW,306,14.1,16.0,83,0.00,,,0.01,258.0,meteobridge,2016-02-08 17:57:00,
2016-02-08 12:02:00,24.3,19.8,29.70,NW,308,15.0,16.0,83,0.00,,,0.01,269.0,meteobridge,2016-02-08 18:02:00,
2016-02-08 12:08:00,24.3,19.8,29.70,NW,326,10.1,15.0,83,0.00,,,0.01,276.0,meteobridge,2016-02-08 18:08:00,
2016-02-08 12:13:00,24.4,19.9,29.70,NW,313,12.1,17.0,83,0.00,,,0.01,276.0,meteobridge,2016-02-08 18:13:00,
2016-02-08 12:18:00,24.4,19.9,29.70,NW,311,12.1,16.0,83,0.00,,,0.01,279.0,meteobridge,2016-02-08 18:18:00,
2016-02-08 12:28:00,25.0,20.5,29.70,NW,321,11.0,13.0,83,0.00,,,0.01,281.0,meteobridge,2016-02-08 18:28:00,
2016-02-08 12:33:00,25.0,20.3,29.70,NW,312,16.1,19.0,82,0.00,,,0.01,279.0,meteobridge,2016-02-08 18:33:00,
2016-02-08 12:38:00,24.8,20.1,29.70,NW,309,12.1,16.0,82,0.00,,,0.01,278.0,meteobridge,2016-02-08 18:38:00,
2016-02-08 12:43:00,24.6,19.9,29.70,WNW,297,12.1,15.0,82,0.00,,,0.01,281.0,meteobridge,2016-02-08 18:43:00,
2016-02-08 12:48:00,24.8,20.1,29.70,WNW,300,13.0,13.0,82,0.00,,,0.01,262.0,meteobridge,2016-02-08 18:48:00,
2016-02-08 12:53:00,24.8,20.3,29.70,WNW,293,20.0,20.0,83,0.00,,,0.01,239.0,meteobridge,2016-02-08 18:53:00,
2016-02-08 13:03:00,24.6,19.9,29.70,NW,323,11.0,20.0,82,0.00,,,0.01,223.0,meteobridge,2016-02-08 19:03:00,
2016-02-08 13:08:00,24.8,20.1,29.70,NW,322,13.0,16.0,82,0.00,,,0.01,232.0,meteobridge,2016-02-08 19:08:00,
2016-02-08 13:14:00,24.8,20.1,29.70,NW,321,14.1,16.0,82,0.00,,,0.01,220.0,meteobridge,2016-02-08 19:14:00,
2016-02-08 13:19:00,24.8,20.1,29.71,NW,324,10.1,20.0,82,0.00,,,0.01,216.0,meteobridge,2016-02-08 19:19:00,
2016-02-08 13:29:00,25.0,20.3,29.71,NW,313,10.1,16.0,82,0.00,,,0.01,218.0,meteobridge,2016-02-08 19:29:00,
2016-02-08 13:34:00,25.0,19.9,29.71,NW,310,15.0,17.0,81,0.00,,,0.01,218.0,meteobridge,2016-02-08 19:34:00,
2016-02-08 13:44:00,24.8,19.8,29.71,NW,321,15.0,16.0,81,0.00,,,0.01,213.0,meteobridge,2016-02-08 19:44:00,
2016-02-08 13:49:00,24.8,19.8,29.71,WNW,297,14.1,15.0,81,0.00,,,0.01,199.0,meteobridge,2016-02-08 19:49:00,
2016-02-08 13:54:00,24.6,19.6,29.72,NW,306,19.0,20.0,81,0.00,,,0.01,206.0,meteobridge,2016-02-08 19:54:00,
2016-02-08 13:59:00,24.4,19.4,29.71,NW,309,8.9,15.0,81,0.00,,,0.01,207.0,meteobridge,2016-02-08 19:59:00,
2016-02-08 14:04:00,24.6,19.6,29.71,NW,308,16.1,19.0,81,0.00,,,0.01,213.0,meteobridge,2016-02-08 20:04:00,
2016-02-08 14:09:00,24.6,19.6,29.71,NW,319,14.1,14.1,81,0.00,,,0.01,211.0,meteobridge,2016-02-08 20:09:00,
2016-02-08 14:24:00,24.4,19.2,29.72,NW,318,19.0,19.0,80,0.00,,,0.01,202.0,meteobridge,2016-02-08 20:24:00,
2016-02-08 14:30:00,24.4,19.4,29.72,NW,315,11.0,18.0,81,0.00,,,0.01,181.0,meteobridge,2016-02-08 20:30:00,
2016-02-08 14:35:00,24.4,19.4,29.72,NW,306,15.0,17.0,81,0.00,,,0.01,179.0,meteobridge,2016-02-08 20:35:00,
2016-02-08 14:40:00,24.3,19.2,29.72,NNW,327,13.0,17.0,81,0.00,,,0.01,172.0,meteobridge,2016-02-08 20:40:00,
2016-02-08 14:45:00,24.3,19.2,29.72,NW,312,11.0,17.0,81,0.00,,,0.01,171.0,meteobridge,2016-02-08 20:45:00,
2016-02-08 14:50:00,24.3,19.2,29.72,NW,307,16.1,20.0,81,0.00,,,0.01,160.0,meteobridge,2016-02-08 20:50:00,
2016-02-08 14:55:00,24.1,19.0,29.72,NW,314,17.0,20.0,81,0.00,,,0.01,163.0,meteobridge,2016-02-08 20:55:00,
2016-02-08 15:00:00,23.9,18.9,29.72,NW,313,14.1,19.0,81,0.00,,,0.01,148.0,meteobridge,2016-02-08 21:00:00,
2016-02-08 15:05:00,23.7,18.7,29.72,NW,309,14.1,17.0,81,0.00,,,0.01,148.0,meteobridge,2016-02-08 21:05:00,
2016-02-08 15:10:00,23.7,19.0,29.73,NW,315,12.1,18.0,82,0.00,,,0.01,141.0,meteobridge,2016-02-08 21:10:00,
2016-02-08 15:15:00,23.7,19.0,29.73,NW,323,13.0,19.0,82,0.00,,,0.01,137.0,meteobridge,2016-02-08 21:15:00,
2016-02-08 15:20:00,23.5,18.5,29.73,NW,312,13.0,19.0,81,0.00,,,0.01,128.0,meteobridge,2016-02-08 21:20:00,
2016-02-08 15:25:00,23.5,18.5,29.73,NW,316,15.0,16.0,81,0.00,,,0.01,121.0,meteobridge,2016-02-08 21:25:00,
2016-02-08 15:30:00,23.4,18.3,29.73,NW,306,17.0,20.0,81,0.00,,,0.01,114.0,meteobridge,2016-02-08 21:30:00,
2016-02-08 15:35:00,23.2,18.1,29.74,NNW,336,16.1,19.0,81,0.00,,,0.01,98.0,meteobridge,2016-02-08 21:35:00,
2016-02-08 15:41:00,23.2,18.1,29.74,WNW,298,12.1,17.0,81,0.00,,,0.01,93.0,meteobridge,2016-02-08 21:41:00,
2016-02-08 15:46:00,23.2,18.1,29.74,NW,322,11.0,17.0,81,0.00,,,0.01,93.0,meteobridge,2016-02-08 21:46:00,
2016-02-08 15:51:00,23.2,18.1,29.75,NNW,332,17.0,17.0,81,0.00,,,0.01,69.0,meteobridge,2016-02-08 21:51:00,
2016-02-08 15:56:00,23.2,18.1,29.75,NW,317,8.9,18.0,81,0.00,,,0.01,49.0,meteobridge,2016-02-08 21:56:00,
2016-02-08 16:01:00,23.2,18.1,29.75,NW,306,14.1,19.0,81,0.00,,,0.01,44.0,meteobridge,2016-02-08 22:01:00,
2016-02-08 16:06:00,23.0,18.0,29.75,NW,321,10.1,17.0,81,0.00,,,0.01,62.0,meteobridge,2016-02-08 22:06:00,
2016-02-08 16:11:00,23.2,18.5,29.75,NW,307,13.0,17.0,82,0.00,,,0.01,65.0,meteobridge,2016-02-08 22:11:00,
2016-02-08 16:16:00,23.2,18.5,29.75,WNW,296,10.1,15.0,82,0.00,,,0.01,60.0,meteobridge,2016-02-08 22:16:00,
2016-02-08 16:21:00,23.0,18.3,29.76,WNW,300,12.1,17.0,82,0.00,,,0.01,47.0,meteobridge,2016-02-08 22:21:00,
2016-02-08 16:26:00,22.8,18.1,29.76,NNW,329,16.1,16.1,82,0.00,,,0.01,53.0,meteobridge,2016-02-08 22:26:00,
2016-02-08 16:31:00,22.8,18.1,29.76,WNW,302,10.1,14.0,82,0.00,,,0.01,49.0,meteobridge,2016-02-08 22:31:00,
2016-02-08 16:36:00,22.8,18.5,29.76,NW,309,12.1,16.0,83,0.00,,,0.01,44.0,meteobridge,2016-02-08 22:36:00,
2016-02-08 16:42:00,22.8,18.5,29.76,NNW,329,17.0,17.0,83,0.00,,,0.01,33.0,meteobridge,2016-02-08 22:42:00,
2016-02-08 16:47:00,22.6,18.3,29.77,NW,324,12.1,18.0,83,0.00,,,0.01,21.0,meteobridge,2016-02-08 22:47:00,
2016-02-08 16:52:00,22.6,18.3,29.77,WNW,300,12.1,17.0,83,0.00,,,0.01,19.0,meteobridge,2016-02-08 22:52:00,
2016-02-08 16:57:00,22.5,18.1,29.77,WNW,300,19.9,21.0,83,0.00,,,0.01,14.0,meteobridge,2016-02-08 22:57:00,
2016-02-08 17:02:00,22.3,18.1,29.77,NW,325,12.1,19.0,84,0.00,,,0.01,7.0,meteobridge,2016-02-08 23:02:00,
2016-02-08 17:07:00,22.1,18.0,29.77,NW,319,12.1,18.0,84,0.00,,,0.01,5.0,meteobridge,2016-02-08 23:07:00,
2016-02-08 17:12:00,22.1,18.0,29.78,NW,315,15.0,17.0,84,0.00,,,0.01,0.0,meteobridge,2016-02-08 23:12:00,
2016-02-08 17:17:00,22.1,18.0,29.78,NW,313,16.1,17.0,84,0.00,,,0.01,0.0,meteobridge,2016-02-08 23:17:00,
2016-02-08 17:22:00,22.1,18.0,29.78,NW,317,12.1,13.0,84,0.00,,,0.01,0.0,meteobridge,2016-02-08 23:22:00,
2016-02-08 17:27:00,22.1,18.0,29.78,NW,314,15.0,18.0,84,0.00,,,0.01,0.0,meteobridge,2016-02-08 23:27:00,
2016-02-08 17:32:00,22.1,18.0,29.78,NNW,333,15.0,19.0,84,0.00,,,0.01,0.0,meteobridge,2016-02-08 23:32:00,
2016-02-08 17:37:00,22.3,18.0,29.79,NW,323,12.1,17.0,83,0.00,,,0.01,0.0,meteobridge,2016-02-08 23:37:00,
2016-02-08 17:42:00,22.3,18.0,29.79,NW,309,13.0,16.0,83,0.00,,,0.01,0.0,meteobridge,2016-02-08 23:42:00,
2016-02-08 17:47:00,22.1,17.4,29.79,NW,309,11.0,18.0,82,0.00,,,0.01,0.0,meteobridge,2016-02-08 23:47:00,
2016-02-08 17:52:00,21.9,17.2,29.79,NW,320,14.1,19.0,82,0.00,,,0.01,0.0,meteobridge,2016-02-08 23:52:00,
2016-02-08 17:57:00,21.9,17.1,29.79,NW,315,17.0,19.0,81,0.00,,,0.01,0.0,meteobridge,2016-02-08 23:57:00,
2016-02-08 18:07:00,21.7,16.9,29.79,NW,315,10.1,16.0,81,0.00,,,0.01,0.0,meteobridge,2016-02-09 00:07:00,
2016-02-08 18:12:00,21.9,17.1,29.79,WNW,303,12.1,15.0,81,0.00,,,0.01,0.0,meteobridge,2016-02-09 00:12:00,
2016-02-08 18:22:00,21.6,16.7,29.79,NW,307,11.0,15.0,81,0.00,,,0.01,0.0,meteobridge,2016-02-09 00:22:00,